Regional Weather Roundup
Issued by NWS Cleveland, OH

Home | Current Version | Previous Version | Graphics & Text | Print | Product List | Glossary On
Versions: 1 2 3 4 5 6 7 8 9 10 11 12 13 14 15 16 17 18 19 20 21 22 23 24 25 26 27 28 29 30 31 32 33 34 35 36 37 38 39 40 41 42 43 44 45 46 47 48 49 50
851
ASUS41 KCLE 252002
RWRCLE
OHIO REGIONAL WEATHER ROUNDUP
NATIONAL WEATHER SERVICE CLEVELAND, OH
400 PM EDT FRI MAY 25 2018

NOTE: "FAIR" INDICATES FEW OR NO CLOUDS BELOW 12,000 FEET WITH NO
SIGNIFICANT WEATHER AND/OR OBSTRUCTIONS TO VISIBILITY.

OHZ001>008-015>018-024>027-034-035-043-044-252100-
   NORTHWEST OHIO

CITY           SKY/WX    TMP DP  RH WIND       PRES   REMARKS
DEFIANCE       FAIR      86  50  28 VRB6      29.90F
FINDLAY        FAIR      86  50  28 VRB7      29.90F
TOLEDO EXPRESS FAIR      88  49  25 W8        29.89F
TOLEDO EXEC    FAIR      87  49  26 SW9       29.90F
LIMA           FAIR      84  51  31 SW7G17    29.92F
$$

OHZ009>014-019>023-028>033-038-089-252100-
   NORTHEAST OHIO

CITY           SKY/WX    TMP DP  RH WIND       PRES   REMARKS
CLE-HOPKINS    FAIR      84  53  34 SW10      29.93F
CLE-LAKEFRONT  FAIR      76  57  51 NW6       29.91F
CUY CO. ARPT   SUNNY     82  52  34 NW7       29.94F
LORAIN-ELYRIA  FAIR      85  51  31 W9        29.92F
ASHTABULA      FAIR      81  54  39 NW8       29.93F
AKRON-CANTON   FAIR      84  52  33 SW7       29.95F
WOOSTER        FAIR      84  52  33 SW9       29.95F
MANSFIELD      FAIR      83  52  34 SW9       29.96F
YOUNGSTOWN     FAIR      85  51  31 VRB5      29.93F
$$

OHZ042-051>053-060>062-070>072-077>081-252100-
  SOUTHWEST OHIO

CITY           SKY/WX    TMP DP  RH WIND       PRES   REMARKS
CINC-COVINGTON FAIR      84  55  36 SW3       29.94F
CINC-LUNKEN    FAIR      85  60  42 SW7       29.93F
HAMILTON       FAIR      86  57  37 SW6       29.93F
DAYTON         FAIR      84  56  38 SW9       29.94F
WRIGHT-PAT AFB FAIR      86  49  27 SW13      29.93F
DAYTON GENERAL FAIR      86  53  32 VRB6      29.93F
WILMINGTON     FAIR      84  59  42 SW6       29.94F
$$

OHZ036-037-039>041-045>050-054>059-063>069-073>076-082>088-252100-
  CENTRAL AND SOUTHEAST OHIO

CITY           SKY/WX    TMP DP  RH WIND       PRES   REMARKS
COLUMBUS       FAIR      86  51  29 SW15      29.93F
OSU AIRPORT    FAIR      85  55  35 SW9       29.93F
BOLTON FIELD   NOT AVBL
RICKENBACK AFB FAIR      85  59  40 MISG      29.93F
NEWARK         FAIR      86  56  35 SW9       29.93F
MARION         FAIR      84  54  35 SW8       29.94F
LANCASTER      FAIR      85  63  47 W8G17     29.94F
ZANESVILLE     FAIR      85  59  41 SW6       29.94F
NEW PHILLY     NOT AVBL
$$




USA.gov is the U.S. government's official web portal to all federal, state and local government web resources and services.